Location: Cerezo de Arriba
(41.2389°N, 3.5585°W)
Time: 04:11:00
(UTC+00:00)

USA 229 DEB - Pass Details

Date: 19 May 2025
Orbit: 872 x 1339 km, 63.4° (Epoch: 20 June)

Event Time Altitude Azimuth Distance (km) Brightness Sun altitude
Exits shadow 23:20:43 59° 99° (E) 1,090 3.5 -27.7°
Drops below altitude 10° 23:26:42 10° 41° (NE) 2,817 6.3 -27.9°
Sets 23:29:29 0° 38° (NE) 3,843 7.2 -28.0°
